H1 CPF 2 NER 2024 7 9 9 191 01 glonass143 H2 2007501 9143 46805 2024 7 9 0 0 0 2024 7 12 23 45 0 900 1 1 0 0 0 1 H9 10 0 60500 0.00000 0 2478618.166 18476382.458 17415499.253 10 0 60500 900.00000 0 1994002.360 20426889.471 15148221.442 10 0 60500 1800.00000 0 1718526.710 22117978.383 12586732.649 10 0 60500 2700.00000 0 1618897.098 23498594.081 9780703.231 10 0 60500 3600.00000 0 1653080.184 24527320.935 6784590.223 10 0 60500 4500.00000 0 1772313.633 25174037.903 3656582.876 10 0 60500 5400.00000 0 1923407.334 25421119.638 457471.987 10 0 60500 6300.00000 0 2051237.806 25264132.331 -2750534.873 10 0 60500 7200.00000 0 2101329.429 24711994.216 -5905028.689 10 0 60500 8100.00000 0 2022412.119 23786593.317 -8944620.512 10 0 60500 9000.00000 0 1768845.816 22521878.024 -11810144.453 10 0 60500 9900.00000 0 1302807.688 20962458.555 -14445817.746 10 0 60500 10800.00000 0 596147.936 19161778.170 -16800334.340 10 0 60500 11700.00000 0 -368165.777 17179931.262 -18827870.000 10 0 60500 12600.00000 0 -1595077.705 15081220.407 -20488978.724 10 0 60500 13500.00000 0 -3076989.425 12931555.318 -21751362.755 10 0 60500 14400.00000 0 -4793841.546 10795803.124 -22590501.166 10 0 60500 15300.00000 0 -6713729.177 8735201.195 -22990124.934 10 0 60500 16200.00000 0 -8794026.082 6804940.713 -22942529.625 10 0 60500 17100.00000 0 -10982970.957 5052021.675 -22448720.056 10 0 60500 18000.00000 0 -13221649.835 3513468.333 -21518384.604 10 0 60500 18900.00000 0 -15446292.014 2214978.617 -20169700.129 10 0 60500 19800.00000 0 -17590783.796 1170062.652 -18428971.730 10 0 60500 20700.00000 0 -19589295.172 379704.849 -16330114.677 10 0 60500 21600.00000 0 -21378909.920 -167438.051 -13913988.918 10 0 60500 22500.00000 0 -22902149.435 -494313.141 -11227599.319 10 0 60500 23400.00000 0 -24109285.084 -634253.932 -8323177.471 10 0 60500 24300.00000 0 -24960342.740 -629322.281 -5257163.149 10 0 60500 25200.00000 0 -25426716.151 -528281.009 -2089105.464 10 0 60500 26100.00000 0 -25492322.149 -384283.989 1119494.657 10 0 60500 27000.00000 0 -25154250.034 -252382.151 4306377.939 10 0 60500 27900.00000 0 -24422878.620 -186951.448 7409732.914 10 0 60500 28800.00000 0 -23321456.740 -239151.836 10369391.235 10 0 60500 29700.00000 0 -21885165.375 -454524.795 13127989.162 10 0 60500 30600.00000 0 -20159701.058 -870830.878 15632073.027 10 0 60500 31500.00000 0 -18199440.018 -1516218.535 17833127.761 10 0 60500 32400.00000 0 -16065259.628 -2407801.445 19688509.281 10 0 60500 33300.00000 0 -13822107.728 -3550704.498 21162263.507 10 0 60500 34200.00000 0 -11536420.461 -4937619.046 22225816.989 10 0 60500 35100.00000 0 -9273495.303 -6548886.922 22858526.566 10 0 60500 36000.00000 0 -7094927.505 -8353110.906 23048078.047 10 0 60500 36900.00000 0 -5056215.476 -10308267.588 22790726.535 10 0 60500 37800.00000 0 -3204633.566 -12363277.812 22091373.792 10 0 60500 38700.00000 0 -1577459.687 -14459970.955 20963480.822 10 0 60500 39600.00000 0 -200630.736 -16535362.819 19428816.719 10 0 60500 40500.00000 0 912118.854 -18524153.647 17517047.712 10 0 60500 41400.00000 0 1759599.934 -20361343.303 15265173.247 10 0 60500 42300.00000 0 2352978.801 -21984855.186 12716818.881 10 0 60500 43200.00000 0 2715062.857 -23338059.620 9921398.604 10 0 60500 44100.00000 0 2879091.903 -24372091.035 6933161.886 10 0 60500 45000.00000 0 2887086.154 -25047861.356 3810143.390 10 0 60500 45900.00000 0 2787820.917 -25337684.336 613035.458 10 0 60500 46800.00000 0 2634514.002 -25226441.609 -2595994.626 10 0 60500 47700.00000 0 2482324.390 -24712240.356 -5754519.070 10 0 60500 48600.00000 0 2385768.984 -23806533.931 -8801071.391 10 0 60500 49500.00000 0 2396168.054 -22533699.490 -11676350.886 10 0 60500 50400.00000 0 2559228.843 -20930089.812 -14324385.311 10 0 60500 51300.00000 0 2912871.067 -19042598.843 -16693628.190 10 0 60500 52200.00000 0 3485387.733 -16926801.130 -18737968.628 10 0 60500 53100.00000 0 4294020.283 -14644743.417 -20417633.359 10 0 60500 54000.00000 0 5344009.492 -12262481.228 -21699963.184 10 0 60500 54900.00000 0 6628163.106 -9847463.859 -22560048.650 10 0 60500 55800.00000 0 8126959.324 -7465877.375 -22981212.739 10 0 60500 56700.00000 0 9809182.401 -5180056.641 -22955331.565 10 0 60500 57600.00000 0 11633064.229 -3046074.170 -22482987.244 10 0 60500 58500.00000 0 13547884.343 -1111605.882 -21573450.481 10 0 60500 59400.00000 0 15495961.559 585838.089 -20244493.647 10 0 60500 60300.00000 0 17414953.991 2020244.921 -18522038.419 10 0 60500 61200.00000 0 19240371.245 3177938.848 -16439645.172 10 0 60500 62100.00000 0 20908193.704 4057895.768 -14037854.358 10 0 60500 63000.00000 0 22357489.337 4671521.466 -11363392.932 10 0 60500 63900.00000 0 23532918.550 5041904.666 -8468261.513 10 0 60500 64800.00000 0 24387022.336 5202578.221 -5408720.280 10 0 60500 65700.00000 0 24882198.116 5195842.292 -2244193.565 10 0 60500 66600.00000 0 24992280.762 5070721.692 963885.310 10 0 60500 67500.00000 0 24703662.956 4880644.763 4153266.261 10 0 60500 68400.00000 0 24015908.372 4680942.690 7262088.480 10 0 60500 69300.00000 0 22941832.414 4526275.432 10230076.804 10 0 60500 70200.00000 0 21507047.522 4468093.284 12999705.347 10 0 60500 71100.00000 0 19748992.301 4552241.328 15517306.189 10 0 60500 72000.00000 0 17715485.139 4816807.775 17734102.113 10 0 60500 72900.00000 0 15462862.516 5290306.832 19607144.095 10 0 60500 73800.00000 0 13053779.195 5990272.611 21100136.221 10 0 60500 74700.00000 0 10554761.222 6922323.390 22184132.876 10 0 60500 75600.00000 0 8033612.617 8079736.029 22838095.518 10 0 60500 76500.00000 0 5556782.391 9443549.180 23049298.889 10 0 60500 77400.00000 0 3186800.114 10983192.089 22813579.154 10 0 60500 78300.00000 0 979885.259 12657614.103 22135419.252 10 0 60500 79200.00000 0 -1016171.514 14416869.233 21027869.471 10 0 60500 80100.00000 0 -2763768.078 16204091.181 19512304.184 10 0 60500 81000.00000 0 -4236819.173 17957777.856 17618018.519 10 0 60500 81900.00000 0 -5421598.637 19614291.191 15381671.668 10 0 60500 82800.00000 0 -6317060.784 21110468.659 12846586.469 10 0 60500 83700.00000 0 -6934627.805 22386237.691 10061917.709 10 0 60500 84600.00000 0 -7297452.305 23387123.499 7081704.353 10 0 60500 85500.00000 0 -7439186.195 24066544.671 3963823.490 10 0 60501 0.00000 0 -7402308.083 24387799.340 768866.308 10 0 60501 900.00000 0 -7236080.152 24325657.442 -2441043.690 10 0 60501 1800.00000 0 -6994221.556 23867490.498 -5603462.464 10 0 60501 2700.00000 0 -6732397.552 23013890.673 -8656848.625 10 0 60501 3600.00000 0 -6505631.690 21778751.371 -11541769.050 10 0 60501 4500.00000 0 -6365751.868 20188805.243 -14202064.127 10 0 60501 5400.00000 0 -6358979.603 18282638.256 -16585948.749 10 0 60501 6300.00000 0 -6523765.821 16109220.797 -18647026.827 10 0 60501 7200.00000 0 -6888965.896 13726017.245 -20345198.969 10 0 60501 8100.00000 0 -7472432.064 11196753.237 -21647445.357 10 0 60501 9000.00000 0 -8280083.547 8588934.120 -22528468.523 10 0 60501 9900.00000 0 -9305494.257 5971218.462 -22971183.665 10 0 60501 10800.00000 0 -10530015.960 3410756.247 -22967047.318 10 0 60501 11700.00000 0 -11923432.097 970602.565 -22516218.432 10 0 60501 12600.00000 0 -13445114.968 -1292685.761 -21627549.189 10 0 60501 13500.00000 0 -15045637.815 -3331171.242 -20318406.245 10 0 60501 14400.00000 0 -16668774.171 -5107287.127 -18614326.255 10 0 60501 15300.00000 0 -18253800.580 -6595147.409 -16548512.762 10 0 60501 16200.00000 0 -19738006.030 -7781362.417 -14161184.519 10 0 60501 17100.00000 0 -21059302.794 -8665327.706 -11498788.165 10 0 60501 18000.00000 0 -22158829.087 -9258976.099 -8613090.825 10 0 60501 18900.00000 0 -22983434.342 -9586005.241 -5560170.503 10 0 60501 19800.00000 0 -23487942.830 -9680615.020 -2399324.149 10 0 60501 20700.00000 0 -23637100.740 -9585809.665 808085.101 10 0 60501 21600.00000 0 -23407125.155 -9351337.517 3999818.907 10 0 60501 22500.00000 0 -22786790.156 -9031356.467 7113969.644 10 0 60501 23400.00000 0 -21778004.691 -8681924.392 10090157.789 10 0 60501 24300.00000 0 -20395858.192 -8358420.934 12870697.667 10 0 60501 25200.00000 0 -18668132.062 -8113009.597 15401709.309 10 0 60501 26100.00000 0 -16634297.388 -7992247.136 17634155.331 10 0 60501 27000.00000 0 -14344040.433 -8034940.795 19524783.455 10 0 60501 27900.00000 0 -11855376.806 -8270343.414 21036957.269 10 0 60501 28800.00000 0 -9232432.078 -8716762.191 22141359.937 10 0 60501 29700.00000 0 -6542980.101 -9380639.658 22816558.069 10 0 60501 30600.00000 0 -3855840.069 -10256145.783 23049415.467 10 0 60501 31500.00000 0 -1238239.084 -11325299.035 22835349.121 10 0 60501 32400.00000 0 1246751.676 -12558612.297 22178422.564 10 0 60501 33300.00000 0 3542602.099 -13916237.891 21091274.499 10 0 60501 34200.00000 0 5601431.644 -15349565.158 19594883.447 10 0 60501 35100.00000 0 7385754.556 -16803205.165 17718172.070 10 0 60501 36000.00000 0 8869789.868 -18217280.731 15497457.713 10 0 60501 36900.00000 0 10040282.071 -19529926.855 12975758.668 10 0 60501 37800.00000 0 10896798.503 -20679897.343 10201968.467 10 0 60501 38700.00000 0 11451491.235 -21609168.456 7229913.308 10 0 60501 39600.00000 0 11728333.628 -22265429.903 4117310.260 10 0 60501 40500.00000 0 11761863.914 -22604357.754 924646.210 10 0 60501 41400.00000 0 11595489.085 -22591572.519 -2286000.617 10 0 60501 42300.00000 0 11279421.212 -22204198.646 -5452173.161 10 0 60501 43200.00000 0 10868334.126 -21431958.292 -8512257.765 10 0 60501 44100.00000 0 10418840.467 -20277751.879 -11406691.445 10 0 60501 45000.00000 0 9986896.931 -18757699.693 -14079129.677 10 0 60501 45900.00000 0 9625248.658 -16900641.682 -16477551.023 10 0 60501 46800.00000 0 9381022.007 -14747115.637 -18555276.303 10 0 60501 47700.00000 0 9293568.597 -12347856.124 -20271881.847 10 0 60501 48600.00000 0 9392652.617 -9761876.694 -21593988.743 10 0 60501 49500.00000 0 9697058.658 -7054215.523 -22495912.672 10 0 60501 50400.00000 0 10213679.327 -4293438.576 -22960161.802 10 0 60501 51300.00000 0 10937121.380 -1549004.453 -22977773.440 10 0 60501 52200.00000 0 11849847.113 1111399.451 -22548483.297 10 0 60501 53100.00000 0 12922845.021 3624438.797 -21680724.589 10 0 60501 54000.00000 0 14116801.431 5933525.265 -20391457.441 10 0 60501 54900.00000 0 15383723.631 7990921.839 -18705832.332 10 0 60501 55800.00000 0 16668946.093 9759473.809 -16656694.482 10 0 60501 56700.00000 0 17913435.192 11213894.722 -14283939.125 10 0 60501 57600.00000 0 19056295.370 12341555.268 -11633730.434 10 0 60501 58500.00000 0 20037371.175 13142743.884 -8757599.559 10 0 60501 59400.00000 0 20799835.627 13630390.114 -5711439.565 10 0 60501 60300.00000 0 21292655.988 13829264.203 -2554417.025 10 0 60501 61200.00000 0 21472833.198 13774688.369 652178.276 10 0 60501 62100.00000 0 21307320.840 13510815.559 3846122.950 10 0 60501 63000.00000 0 20774543.041 13088549.504 6965465.721 10 0 60501 63900.00000 0 19865447.589 12563194.726 9949725.725 10 0 60501 64800.00000 0 18584050.082 11991936.181 12741060.299 10 0 60501 65700.00000 0 16947446.201 11431255.115 15285379.947 10 0 60501 66600.00000 0 14985291.341 10934389.991 17533389.324 10 0 60501 67500.00000 0 12738768.924 10548949.227 19441534.777 10 0 60501 68400.00000 0 10259089.724 10314775.813 20972840.922 10 0 60501 69300.00000 0 7605583.850 10262153.258 22097620.855 10 0 60501 70200.00000 0 4843463.600 10410427.934 22794047.092 10 0 60501 71100.00000 0 2041348.778 10767105.595 23048572.828 10 0 60501 72000.00000 0 -731344.180 11327460.171 22856195.742 10 0 60501 72900.00000 0 -3407042.461 12074671.762 22220559.338 10 0 60501 73800.00000 0 -5922578.411 12980488.878 21153889.602 10 0 60501 74700.00000 0 -8221567.257 14006388.223 19676767.578 10 0 60501 75600.00000 0 -10256503.360 15105184.584 17817741.376 10 0 60501 76500.00000 0 -11990488.620 16223024.516 15612784.024 10 0 60501 77400.00000 0 -13398521.573 17301681.131 13104606.489 10 0 60501 78300.00000 0 -14468293.733 18281054.406 10341838.088 10 0 60501 79200.00000 0 -15200460.045 19101772.203 7378089.185 10 0 60501 80100.00000 0 -15608372.215 19707782.483 4270913.758 10 0 60501 81000.00000 0 -15717286.218 20048826.975 1080691.659 10 0 60501 81900.00000 0 -15563077.565 20082691.087 -2130547.667 10 0 60501 82800.00000 0 -15190518.813 19777133.898 -5300336.647 10 0 60501 83700.00000 0 -14651192.637 19111415.339 -8366991.965 10 0 60501 84600.00000 0 -14001129.337 18077354.599 -11270823.178 10 0 60501 85500.00000 0 -13298269.619 16679873.621 -13955302.986 10 0 60502 0.00000 0 -12599860.974 14937001.579 -16368175.257 10 0 60502 900.00000 0 -11959898.412 12879338.025 -18462479.666 10 0 60502 1800.00000 0 -11426719.562 10548998.703 -20197469.196 10 0 60502 2700.00000 0 -11040855.298 7998084.539 -21539406.668 10 0 60502 3600.00000 0 -10833228.110 5286739.644 -22462221.389 10 0 60502 4500.00000 0 -10823774.205 2480878.402 -22948014.649 10 0 60502 5400.00000 0 -11020547.569 -350323.583 -22987404.331 10 0 60502 6300.00000 0 -11419343.617 -3137070.318 -22579702.385 10 0 60502 7200.00000 0 -12003857.995 -5811608.305 -21732922.181 10 0 60502 8100.00000 0 -12746373.440 -8310801.096 -20463616.089 10 0 60502 9000.00000 0 -13608945.293 -10578509.045 -18796546.844 10 0 60502 9900.00000 0 -14545035.297 -12567676.017 -16764199.482 10 0 60502 10800.00000 0 -15501524.402 -14242037.299 -14406143.597 10 0 60502 11700.00000 0 -16421019.411 -15577378.859 -11768258.590 10 0 60502 12600.00000 0 -17244355.930 -16562296.911 -8901837.215 10 0 60502 13500.00000 0 -17913191.891 -17198427.774 -5862585.102 10 0 60502 14400.00000 0 -18372582.156 -17500140.173 -2709535.932 10 0 60502 15300.00000 0 -18573425.546 -17493704.650 496096.369 10 0 60502 16200.00000 0 -18474681.150 -17215976.621 3692105.877 10 0 60502 17100.00000 0 -18045260.510 -16712649.887 6816500.148 10 0 60502 18000.00000 0 -17265516.028 -16036155.245 9808699.429 10 0 60502 18900.00000 0 -16128262.935 -15243293.472 12610706.453 10 0 60502 19800.00000 0 -14639291.725 -14392702.781 15168224.459 10 0 60502 20700.00000 0 -12817349.249 -13542267.431 17431702.214 10 0 60502 21600.00000 0 -10693588.721 -12746576.349 19357286.504 10 0 60502 22500.00000 0 -8310510.837 -12054538.111 20907664.459 10 0 60502 23400.00000 0 -5720439.151 -11507251.989 22052780.227 10 0 60502 24300.00000 0 -2983591.946 -11136223.839 22770412.955 10 0 60502 25200.00000 0 -165829.285 -10962001.242 23046605.550 10 0 60502 26100.00000 0 2663832.720 -10993284.875 22875936.313 10 0 60502 27000.00000 0 5435838.906 -11226553.390 22261628.308 10 0 60502 27900.00000 0 8082736.280 -11646217.868 21215494.070 10 0 60502 28800.00000 0 10541731.247 -12225299.964 19757716.143 10 0 60502 29700.00000 0 12757057.829 -12926606.129 17916466.794 10 0 60502 30600.00000 0 14682059.310 -13704349.535 15727373.168 10 0 60502 31500.00000 0 16280897.214 -14506152.452 13232837.080 10 0 60502 32400.00000 0 17529816.677 -15275345.596 10481221.516 10 0 60502 33300.00000 0 18417915.433 -15953468.084 7525918.616 10 0 60502 34200.00000 0 18947384.191 -16482862.692 4424316.622 10 0 60502 35100.00000 0 19133208.262 -16809256.595 1236685.517 10 0 60502 36000.00000 0 19002343.002 -16884217.862 -1974996.987 10 0 60502 36900.00000 0 18592397.926 -16667382.801 -5148255.778 10 0 60502 37800.00000 0 17949885.329 -16128358.665 -8221340.796 10 0 60502 38700.00000 0 17128107.860 -15248219.764 -11134436.900 10 0 60502 39600.00000 0 16184775.005 -14020532.189 -13830836.586 10 0 60502 40500.00000 0 15179450.002 -12451862.373 -16258051.756 10 0 60502 41400.00000 0 14170935.934 -10561746.644 -18368842.122 10 0 60502 42300.00000 0 13214712.206 -8382121.861 -20122139.537 10 0 60502 43200.00000 0 12360530.322 -5956240.063 -21483849.977 10 0 60502 44100.00000 0 11650270.840 -3337111.885 -22427517.445 10 0 60502 45000.00000 0 11116152.070 -585543.347 -22934837.040 10 0 60502 45900.00000 0 10779365.923 2232152.371 -22996007.523 10 0 60502 46800.00000 0 10649198.031 5046673.090 -22609916.991 10 0 60502 47700.00000 0 10722668.628 7788371.030 -21784158.500 10 0 60502 48600.00000 0 10984708.610 10389911.841 -20534875.836 10 0 60502 49500.00000 0 11408862.546 12788839.051 -18886442.828 10 0 60502 50400.00000 0 11958488.202 14929937.835 -16870982.823 10 0 60502 51300.00000 0 12588401.241 16767300.529 -14527737.949 10 0 60502 52200.00000 0 13246895.027 18266008.869 -11902300.682 10 0 60502 53100.00000 0 13878049.749 19403364.017 -9045722.916 10 0 60502 54000.00000 0 14424232.901 20169614.425 -6013520.096 10 0 60502 54900.00000 0 14828685.217 20568152.664 -2864590.015 10 0 60502 55800.00000 0 15038082.651 20615174.564 339932.417 10 0 60502 56700.00000 0 15004966.055 20338816.550 3537861.967 10 0 60502 57600.00000 0 14689936.002 19777808.829 6667168.227 10 0 60502 58500.00000 0 14063520.080 18979702.238 9667175.638 10 0 60502 59400.00000 0 13107633.947 17998744.206 12479735.204 10 0 60502 60300.00000 0 11816574.453 16893493.699 15050345.515 10 0 60502 61200.00000 0 10197502.804 15724275.603 17329201.763 10 0 60502 62100.00000 0 8270396.941 14550581.353 19272153.161 10 0 60502 63000.00000 0 6067474.331 13428524.520 20841550.985 10 0 60502 63900.00000 0 3632108.237 12408457.456 22006971.689 10 0 60502 64800.00000 0 1017281.318 11532848.208 22745801.904 10 0 60502 65700.00000 0 -1716360.581 10834505.875 23043674.658 10 0 60502 66600.00000 0 -4502775.226 10335228.179 22894748.812 10 0 60502 67500.00000 0 -7273018.936 10044927.412 22301826.404 10 0 60502 68400.00000 0 -9957867.806 9961271.262 21276305.408 10 0 60502 69300.00000 0 -12490457.881 10069853.666 19837968.225 10 0 60502 70200.00000 0 -14808835.935 10344888.930 18014609.132 10 0 60502 71100.00000 0 -16858315.794 10750400.526 15841506.809 10 0 60502 72000.00000 0 -18593542.728 11241855.263 13360750.993 10 0 60502 72900.00000 0 -19980180.185 11768174.658 10620435.165 10 0 60502 73800.00000 0 -20996148.441 12274039.191 7673729.963 10 0 60502 74700.00000 0 -21632363.165 12702388.383 4577854.613 10 0 60502 75600.00000 0 -21892942.684 12997010.906 1392966.009 10 0 60502 76500.00000 0 -21794875.026 13105114.645 -1819012.934 10 0 60502 77400.00000 0 -21367158.608 12979767.051 -4995602.460 10 0 60502 78300.00000 0 -20649452.831 12582101.257 -8074988.452 10 0 60502 79200.00000 0 -19690295.773 11883193.146 -10997233.533 10 0 60502 80100.00000 0 -18544964.656 10865528.372 -13705452.183 10 0 60502 81000.00000 0 -17273070.035 9523995.749 -16146926.029 10 0 60502 81900.00000 0 -15935985.962 7866363.542 -18274136.791 10 0 60502 82800.00000 0 -14594225.264 5913217.196 -20045696.119 10 0 60502 83700.00000 0 -13304871.216 3697359.953 -21427153.887 10 0 60502 84600.00000 0 -12119174.225 1262700.512 -22391669.134 10 0 60502 85500.00000 0 -11080414.886 -1337326.401 -22920530.693 10 0 60503 0.00000 0 -10222123.270 -4041740.835 -23003517.761 10 0 60503 900.00000 0 -9566728.436 -6784319.010 -22639093.773 10 0 60503 1800.00000 0 -9124695.392 -9496116.011 -21834430.275 10 0 60503 2700.00000 0 -8894183.275 -12108109.865 -20605260.981 10 0 60503 3600.00000 0 -8861239.244 -14553853.668 -18975569.045 10 0 60503 4500.00000 0 -9000518.252 -16772027.195 -16977114.119 10 0 60503 5400.00000 0 -9276497.304 -18708782.113 -14648808.677 10 0 60503 6300.00000 0 -9645131.904 -20319783.794 -12035955.964 10 0 60503 7200.00000 0 -10055883.878 -21571865.493 -9189364.644 10 0 60503 8100.00000 0 -10454034.104 -22444226.926 -6164357.606 10 0 60503 9000.00000 0 -10783181.875 -22929128.398 -3019694.420 10 0 60503 9900.00000 0 -10987824.772 -23032052.771 183571.317 10 0 60503 10800.00000 0 -11015909.725 -22771329.869 3383277.317 10 0 60503 11700.00000 0 -10821247.293 -22177240.419 6517357.425 10 0 60503 12600.00000 0 -10365687.081 -21290638.276 9525042.456 10 0 60503 13500.00000 0 -9620962.435 -20161149.780 12348033.827 10 0 60503 14400.00000 0 -8570126.520 -18845026.422 14931627.534 10 0 60503 15300.00000 0 -7208519.073 -17402741.308 17225767.127 10 0 60503 16200.00000 0 -5544222.787 -15896430.150 19186005.973 10 0 60503 17100.00000 0 -3597989.422 -14387283.692 20774360.986 10 0 60503 18000.00000 0 -1402637.778 -12933000.142 21960042.111 10 0 60503 18900.00000 0 998052.637 -11585403.404 22720044.306 10 0 60503 19800.00000 0 3550907.658 -10388325.813 23039591.219 10 0 60503 20700.00000 0 6195320.740 -9375843.032 22912422.415 10 0 60503 21600.00000 0 8865531.670 -8570934.150 22340918.724 10 0 60503 22500.00000 0 11493128.827 -7984622.444 21336063.053 10 0 60503 23400.00000 0 14009672.638 -7615632.466 19917236.868 10 0 60503 24300.00000 0 16349332.629 -7450577.788 18111855.381 10 0 60503 25200.00000 0 18451429.472 -7464671.657 15954847.456 10 0 60503 26100.00000 0 20262776.886 -7622931.089 13487989.102 10 0 60503 27000.00000 0 21739726.069 -7881824.088 10759102.368 10 0 60503 27900.00000 0 22849827.290 -8191290.903 7821134.143 10 0 60503 28800.00000 0 23573038.810 -8497054.187 4731132.094 10 0 60503 29700.00000 0 23902432.067 -8743120.274 1549137.253 10 0 60503 30600.00000 0 23844363.028 -8874365.367 -1662985.230 10 0 60503 31500.00000 0 23418102.098 -8839096.310 -4842754.000 10 0 60503 32400.00000 0 22654937.921 -8591476.426 -7928293.900 10 0 60503 33300.00000 0 21596792.789 -8093712.298 -10859548.213 10 0 60503 34200.00000 0 20294408.221 -7317907.394 -13579456.087 10 0 60503 35100.00000 0 18805177.596 -6247502.526 -16035071.300 10 0 60503 36000.00000 0 17190717.730 -4878240.691 -18178599.715 10 0 60503 36900.00000 0 15514282.315 -3218614.103 -19968334.617 10 0 60503 37800.00000 0 13838126.670 -1289773.287 -21369471.313 10 0 60503 38700.00000 0 12220935.031 875099.097 -22354785.092 10 0 60503 39600.00000 0 10715418.759 3231924.322 -22905159.426 10 0 60503 40500.00000 0 9366186.184 5727326.685 -23009954.474 10 0 60503 41400.00000 0 8207973.086 8300629.348 -22667209.178 10 0 60503 42300.00000 0 7264307.310 10886163.942 -21883673.467 10 0 60503 43200.00000 0 6546662.536 13415797.971 -20674670.453 10 0 60503 44100.00000 0 6054135.392 15821574.948 -19063791.701 10 0 60503 45000.00000 0 5773658.109 18038357.540 -17082431.884 10 0 60503 45900.00000 0 5680736.237 20006363.946 -14769172.164 10 0 60503 46800.00000 0 5740678.931 21673492.231 -12169024.524 10 0 60503 47700.00000 0 5910268.573 22997336.261 -9332552.012 10 0 60503 48600.00000 0 6139798.121 23946809.791 -6314882.242 10 0 60503 49500.00000 0 6375389.145 24503311.782 -3174633.557 10 0 60503 50400.00000 0 6561491.844 24661385.185 27224.972 10 0 60503 51300.00000 0 6643460.793 24428842.751 3228557.330 10 0 60503 52200.00000 0 6570097.204 23826355.718 6367264.971 10 0 60503 53100.00000 0 6296050.020 22886523.660 9382488.354 10 0 60503 54000.00000 0 5783974.338 21652465.415 12215782.415 10 0 60503 54900.00000 0 5006355.993 20175990.779 14812243.423 10 0 60503 55800.00000 0 3946925.224 18515429.986 17121565.870 10 0 60503 56700.00000 0 2601599.643 16733211.856 19099009.544 10 0 60503 57600.00000 0 978916.339 14893291.654 20706258.899 10 0 60503 58500.00000 0 -900065.856 13058535.606 21912158.904 10 0 60503 59400.00000 0 -3002390.960 11288170.473 22693313.961 10 0 60503 60300.00000 0 -5284332.685 9635403.658 23034539.001 10 0 60503 61200.00000 0 -7692978.170 8145312.149 22929154.462 10 0 60503 62100.00000 0 -10168204.458 6853087.354 22379119.597 10 0 60503 63000.00000 0 -12644967.327 5782708.262 21395001.325 10 0 60503 63900.00000 0 -15055808.939 4946097.678 19995778.670 10 0 60503 64800.00000 0 -17333481.564 4342796.408 18208485.728 10 0 60503 65700.00000 0 -19413579.325 3960168.833 16067698.977 10 0 60503 66600.00000 0 -21237069.139 3774131.268 13614877.716 10 0 60503 67500.00000 0 -22752615.654 3750372.585 10897569.241 10 0 60503 68400.00000 0 -23918603.067 3846015.886 7968493.178 10 0 60503 69300.00000 0 -24704768.856 4011651.155 4884522.051 10 0 60503 70200.00000 0 -25093380.361 4193652.942 1705577.465 10 0 60503 71100.00000 0 -25079904.164 4336684.617 -1506536.633 10 0 60503 72000.00000 0 -24673139.382 4386282.522 -4689340.543 10 0 60503 72900.00000 0 -23894808.708 4291409.539 -7780901.104 10 0 60503 73800.00000 0 -22778624.031 4006868.663 -10721045.037 10 0 60503 74700.00000 0 -21368865.826 3495472.884 -13452538.647 10 0 60503 75600.00000 0 -19718536.273 2729878.014 -15922210.005 10 0 60503 76500.00000 0 -17887164.146 1693999.365 -18081990.883 10 0 60503 77400.00000 0 -15938354.271 383950.998 -19889857.499 10 0 60503 78300.00000 0 -13937185.036 -1191533.442 -21310651.408 10 0 60503 79200.00000 0 -11947563.623 -3011217.206 -22316764.436 10 0 60503 80100.00000 0 -10029650.148 -5042010.291 -22888674.453 10 0 60503 81000.00000 0 -8237458.660 -7240126.234 -23015321.862 10 0 60503 81900.00000 0 -6616735.103 -9552697.990 -22694319.938 10 0 60503 82800.00000 0 -5203200.458 -11919785.764 -21931995.375 10 0 60503 83700.00000 0 -4021231.569 -14276693.240 -20743258.759 10 0 60503 84600.00000 0 -3083033.613 -16556495.785 -19151307.877 10 0 60503 85500.00000 0 -2388337.373 -18692675.293 -17187170.036 99